{"data":{"norad_id":67139,"intl_designator":"2025-301G","name":"KUIPER-00184","alt_names":[],"object_type":"PAYLOAD","status":"ACTIVE","operator":null,"country":"US","launch_date":"2025-12-16","launch_site_code":"AFETR","launch_vehicle":null,"mission":null,"orbit_class":"UNKNOWN","rcs_meters":null,"size_class":null,"mass_kg":null,"dimensions":null,"purposes":[],"wikipedia_slug":null,"has_3d_model":false,"image_url":null,"decayed_at":null,"tle_current":{"epoch":"2026-09-20T08:28:12.376128Z","epoch_age_seconds":118935,"freshness":"FRESH","line1":"1 67139U 25301G   26263.35292102  .00001721  00000+0  25464-3 0  9994","line2":"2 67139  51.8996 279.7869 0000473  67.0279 293.0734 14.79939074 42905","mean_motion":14.79939074,"eccentricity":4.73e-5,"inclination_deg":51.8996,"raan_deg":279.7869,"arg_perigee_deg":67.0279,"mean_anomaly_deg":293.0734,"bstar":0.00025464,"rev_number":4290,"period_min":97.301302823767,"perigee_km":629.18499311929,"apogee_km":629.84791713614,"semimajor_km":7007.6534551277,"source":"CELESTRAK","updated_at":"2026-09-21T09:00:16.455373Z"}}}